STARLINK-35314, 65837

Orbit data source: Space-Track

STARLINK-35314, 65837 is a payload satellite owned by SpaceX/Seattle (US) in LEO that was launched on Mon, 29 Sep 2025 UTC via an FALCON 9 launch vehicle from the Air Force Western Test Range (AFWTR). Payload-class satellites include a variety of spacecraft equipped with specific instruments for various scientific and technological missions. These include communications satellites like Starlink; space stations such as the ISS; scientific satellites like the Hubble; Earth observation satellites from companies like Planet Labs, Umbra, and HawkEye 360; GPS; miniature CubeSats for education and research; and military/defense satellites.

Loading next visibility...
Identifier
65837, 2025-221Q
Orbit
LEO
Country
Flag of USUS
Related business
Manufacturer
SpaceX/Seattle
Mission
Operational Commercial Communications
Bus & Motor
STARLINK V2MO, Unknown motor
Mass
575 kg wet, ~530 kg dry
Launch date (UTC)
2025-09-29 (9 months ago)
Launch vehicle
FALCON 9
Launch site
Air Force Western Test Range (AFWTR)
Object type
Payload
Rocket body
Debris
Shape & HBR
Box + 2 Pan, 17.7 m
Radar Cross Section
36.964 m², Large (>1 m²)

Expand to show TLE details & history
Last TLE update: 12 hours ago

TLE from 12 hours ago
0 STARLINK-35314
1 65837U 25221Q   26171.46717088  .00021246  00000-0  63793-3 0  9995
2 65837  53.1603 329.9260 0001620 111.9744 248.1431 15.34411147 40486
Epoch: 2026-06-20T11:12Z
TLE epoch observation values (Epoch: 2026-06-20T11:12:43.564Z)
Latitude
0.00001°
Longitude
-106.93689°
Altitude
463.984 km
Speed
7.635 km/s
True Right ascension
21h 59m 42s
True Declination
0° 00' 00"
Sunlit
Object was in full shadow at epoch
Visualization orbit readout
Latitude
Unknown
Longitude
Unknown
Altitude
Unknown
Speed
Unknown
Apparent Right ascension
Unknown
Apparent Declination
Unknown
Sunlit
N/A
Visualization observer readout
Local Sidereal Time
10:18:40
Azimuth
Unknown
Elevation
Unknown
Doppler factor
Unknown
Orbital elements
Apogee altitude
464.035 km
Perigee altitude
461.819 km
Semi-major axis
6,841.064 km
Eccentricity
0.00016
Inclination
53.1603°
RAAN
329.926°
Arg. of periapsis
111.9744°
True anomaly
248.12587°
Mean anomaly
248.1431°
Eccentric anomaly
248.13449°
Mean motion
3.83582 °/min
Orbital period
93.85 mins
BSTAR
0.00063793
Loading maneuver chart data...
Computing Atmospheric mass density...
Loading historical data...
Loading historical data...
Loading historical data...
Loading historical data...
Loading historical data...
Loading historical data...
Loading historical data...

Documentation

Showing up to 5 results
|